Skip Page Navigation
NASA JPL Caltech
NASA Logo - Jet Propulsion Laboratory + View the NASA Portal
+ Center for Near-Earth Object Studies
JPL Home Earth Solar System Stars & Galaxies Technology
JPL Solar System Dynamics
BODIES ORBITS EPHEMERIDES TOOLS PHYSICAL DATA DISCOVERY FAQ SITE MAP
IMPORTANT: The SSD Announcement email list is now available. Major changes are coming in the near future, including possible hostname and/or URL changes. To be notified of such changes, subscribe to this email list.

Please visit this page for more details.


JPL Small-Body Database Browser
Search: [ help ]  
214523 (2006 JD17)
Classification: Main-belt Asteroid          SPK-ID: 2214523
Ephemeris | Orbit Diagram | Orbital Elements | Mission Design | Physical Parameters | Discovery Circumstances ]

[ show orbit diagram ]
Orbital Elements at Epoch 2458600.5 (2019-Apr-27.0) TDB
Reference: JPL 15 (heliocentric ecliptic J2000)
 Element Value Uncertainty (1-sigma)   Units 
e .07056639582577205 7.1142e-08  
a 2.121522123696028 1.1714e-08 au
q 1.971813953762162 1.4941e-07 au
i 1.778743296472316 4.7799e-06 deg
node 112.0748952384892 0.00030246 deg
peri 118.9080235503621 0.00030831 deg
M 69.18575499818151 6.008e-05 deg
tp 2458383.587810427814
(2018-Sep-22.08781043)
0.00018828 TDB
period 1128.677258028614
3.09
9.3481e-06
2.559e-08
d
yr
n .3189574321970376 2.6417e-09 deg/d
Q 2.271230293629895 1.2541e-08 au
  Orbit Determination Parameters
   # obs. used (total)      277  
   data-arc span      6548 days (17.93 yr)  
   first obs. used      2001-11-17  
   last obs. used      2019-10-22  
   planetary ephem.      DE431  
   SB-pert. ephem.      SB431-N16  
   condition code      0  
   norm. resid. RMS      .65526  
   source      ORB  
   producer      Otto Matic  
   solution date      2019-Nov-07 23:54:34  

Additional Information
 Earth MOID = .96156 au 
 Jupiter MOID = 2.70564 au 
 T_jup = 3.726 
[ show covariance matrix ]

Ephemeris | Orbit Diagram | Orbital Elements | Mission Design | Physical Parameters | Discovery Circumstances ]

Physical Parameter Table
Parameter Symbol Value Units Sigma Reference Notes
absolute magnitude H 17.7   n/a MPO437027  

214523 (2006 JD17)          Discovered 2006-May-02 by Spacewatch at Kitt Peak
Reference: 20090509/Numbers.arcLast Updated: 2009-05-11

Alternate Designations
 2006 JD17 = 2004 WE4 
Ephemeris | Orbit Diagram | Orbital Elements | Mission Design | Physical Parameters | Discovery Circumstances ]
ABOUT SSD CREDITS/AWARDS PRIVACY/COPYRIGHT GLOSSARY LINKS
FirstGov 2019-Dec-11 19:55 UT
(server date/time)  
NASA Home Page
Site Manager:   Ryan S. Park
Webmaster  Alan B. Chamberlin